Weather in Samchiki

Ukraine / Khmelnitsky District     49°45′47″N   27°23′50″E
temp.,
°C
wind,
m/s
gust,
m/s
humid.,
%
clouds,
%
prec.,
mm/h
press.,
hPa
HPBL,
m
28 september, tue
tue2800:00+6e36830 0.0 1025116
03:00+5ese35890 0.0 102576
06:00+5e33914 0.0 102539
09:00+8e35745 0.0 1025218
12:00+13e455228 0.0 10251368
15:00+15e444696 0.0 10251730
18:00+12ene3655100 0.0 1026251
21:00+11ene3760100 0.0 1027209
29 september, wed
wed2900:00+10e3765100 0.0 1028225
03:00+10ese3666100 0.0 1029169
06:00+9e3664100 0.0 1029196
09:00+10ese4862100 0.0 1029388
12:00+12ese5759100 0.0 1030813
15:00+14se564692 0.1 10291786
18:00+13ese465199 0.0 1029564
21:00+11ese485696 0.0 1030281
30 september, thu
thu3000:00+8ese410695 0.0 1031225
03:00+7se512720 0.0 1031337
06:00+5se411792 0.0 1031219
09:00+8se59665 0.0 1032355
12:00+13se66485 0.0 10311030
15:00+15se55420 0.0 10301299
18:00+13se46515 0.0 1029180
21:00+9se476316 0.0 103199
1 october, fri
fri100:00+7se496349 0.0 1031161
03:00+7sse4955100 0.0 1032154
06:00+6sse4954100 0.0 1032151
09:00+8sse4848100 0.0 1032219
12:00+13sse5735100 0.0 1032790
15:00+16sse5630100 0.0 10301282
18:00+13se473914 0.0 1029164
21:00+9se4848100 0.0 1030131
2 october, sat
sat200:00+7sse41251100 0.0 1030204
03:00+7sse51254100 0.0 1030233
06:00+6sse51257100 0.0 1029243
09:00+9sse51250100 0.0 1029389
12:00+14sse71039100 0.0 1028929
15:00+16sse793416 0.0 10261205
18:00+14sse5103727 0.0 1025363
21:00+8se412500 0.0 1026223